Regional Weather Roundup
Issued by NWS

Home | Current Version | Previous Version | Text Only | Print | Product List | Glossary On
Versions: 1 2 3 4 5 6 7 8 9 10 11 12 13 14 15 16 17 18 19 20 21 22 23 24 25 26 27 28 29 30 31 32 33 34 35 36 37 38 39 40 41 42 43 44 45 46 47 48 49 50
000
ASUS45 KBOI 230710
RWRID

IDAHO REGIONAL WEATHER ROUNDUP
NATIONAL WEATHER SERVICE BOISE ID
1200 AM MST THU FEB 23 2017

NOTE: "FAIR" INDICATES FEW OR NO CLOUDS BELOW 12000 FEET
WITH NO SIGNIFICANT WEATHER AND/OR OBSTRUCTIONS TO VISIBILITY

IDZ012-014-230800-
SOUTHWEST IDAHO


CITY           SKY/WX    TMP DP  RH WIND       PRES   REMARKS
BOISE          LGT SNOW  32  28  85 NW15      29.82F FOG     WCI  22
CALDWELL       CLOUDY    33  29  85 W18G25    29.87F WCI  22
MOUNTAIN HOME  CLOUDY    32  32 100 NW24      29.80S WCI  19
$$

IDZ016-017-230800-
SOUTHCENTRAL IDAHO


CITY           SKY/WX    TMP DP  RH WIND       PRES   REMARKS
BURLEY         CLOUDY    31  25  78 W8        29.70F WCI  23
JEROME           N/A    N/A N/A N/A MISG      29.72F
TWIN FALLS     LGT SNOW  28  26  92 W13       29.73F FOG     WCI  17
$$

IDZ019>023-230800-
SOUTHEAST IDAHO


CITY           SKY/WX    TMP DP  RH WIND       PRES   REMARKS
IDAHO FALLS    CLOUDY    30  27  88 N9        29.68F WCI  22
POCATELLO      LGT SNOW  29  28  96 SW8       29.71F VSB 3/4 WCI  21
REXBURG        CLOUDY    27  22  81 N5        29.69F WCI  22
$$

IDZ006-010-011-018-031-032-230800-
CENTRAL IDAHO MOUNTAINS


CITY           SKY/WX    TMP DP  RH WIND       PRES   REMARKS
MCCALL         CLOUDY    25  17  72 N10       29.79S WCI  15
HAILEY         CLOUDY    27  21  80 N6        29.70F WCI  20
STANLEY          N/A     17  13  84 CALM      29.70F
SALMON         CLOUDY    34  23  64 SW3       29.78S
CHALLIS        CLOUDY    28  25  88 N9        29.73F WCI  19
$$

IDZ002-004-006-007-026-230800-
NORTHERN IDAHO


CITY           SKY/WX    TMP DP  RH WIND       PRES   REMARKS
LEWISTON       PTCLDY    34  27  75 W6        30.04S WCI  29
LOWELL           N/A     35  32  88 CALM      30.03S
COEUR D`ALENE  FOG       24  22  91 CALM      30.03S VSB 1/2
MULLAN PASS    FOG       20  18  92 N5        29.84S VSB 3/4 WCI  13
$$



USA.gov is the U.S. government's official web portal to all federal, state and local government web resources and services.